Terminal Aerodrome Forecast
Issued by NWS

Home | Current Version | Previous Version | Graphics & Text | Print | Product List | Glossary On
Versions: 1 2 3 4 5 6 7 8 9 10 11 12 13 14 15 16 17 18 19 20 21 22 23 24 25 26 27 28 29 30 31 32
000
FTUS43 KLOT 241600 AAB
TAFMDW
TAF AMD
KMDW 241603Z 2416/2512 14009KT P6SM SCT020 BKN250
     FM242100 09010KT P6SM SCT025
     FM250100 13006KT P6SM FEW025=

USA.gov is the U.S. government's official web portal to all federal, state and local government web resources and services.